Location: Pedholt
(56.0260°N, 10.2097°E)
Time: 02:16:53
(UTC+00:00)

A-11 Canister half - Pass Details

Date: 03 August 2021
Orbit: 1514 x 1685 km, 47.2° (Epoch: 16 September)

Event Time Altitude Azimuth Distance (km) Brightness Sun altitude
Rises 20:12:06 0° 273° (W) 4,868 12.5 -6.2°
Reaches altitude 10° 20:15:23 10° 268° (W) 3,900 11.8 -6.6°
Maximum altitude 20:24:36 44° 201° (SSW) 2,200 9.7 -7.5°
Drops below altitude 10° 20:33:57 10° 134° (SE) 3,947 10.5 -8.3°
Enters shadow 20:34:09 - 134° (SE) 4,003 10.5 -8.4°
Sets 20:37:18 0° 128° (SE) 4,931 - -8.6°
